Regional Weather Roundup
Issued by NWS Little Rock, AR

Home | Current Version | Previous Version | Text Only | Print | Product List | Glossary Off
Versions: 1 2 3 4 5 6 7 8 9 10 11 12 13 14 15 16 17 18 19 20 21 22 23 24 25 26 27 28 29 30 31 32 33 34 35 36 37 38 39 40 41 42 43 44 45 46 47 48 49 50

429
ASUS44 KLZK 231605
RWRLZK

WEATHER ROUNDUP FOR ARKANSAS
NATIONAL WEATHER SERVICE LITTLE ROCK AR
1000 AM CST TUE JAN 23 2018

NOTE: "FAIR" INDICATES FEW OR NO CLOUDS BELOW 12,000 FEET WITH NO
SIGNIFICANT WEATHER AND/OR OBSTRUCTIONS TO VISIBILITY.

ARZ001-003-010-029-231700-
NORTHWEST ARKANSAS

CITY           SKY/WX    TMP DP  RH WIND       PRES   REMARKS
FAYETTEVILLE   CLOUDY    32  28  85 NW8       30.20R WCI  25
FORT SMITH     SUNNY     40  27  59 W12       30.24R
HARRISON       CLOUDY    34  26  72 W12       30.15R WCI  25
BENTONVILLE    CLOUDY    31  27  85 W10       30.21R WCI  22
ROGERS         CLOUDY    32  27  81 W9        30.20R WCI  24
SILOAM SPGS    CLOUDY    32  27  81 NW10        N/A  WCI  24
HIGHFILL       CLOUDY    34  27  75 NW10      30.20R WCI  26
$$

ARZ004-005-016-231700-
NORTH CENTRAL ARKANSAS

CITY           SKY/WX    TMP DP  RH WIND       PRES   REMARKS
BATESVILLE     CLOUDY    40  26  57 W14G20    30.15R
FLIPPIN        CLOUDY    36  25  64 NW20      30.17R
MTN HOME       CLOUDY    34  26  72 VRB7G17   30.14R WCI  28
$$

ARZ040-041-231700-
WEST CENTRAL ARKANSAS

CITY           SKY/WX    TMP DP  RH WIND       PRES   REMARKS
MENA           SUNNY     43  27  52 NW8       30.20R
$$

ARZ009-017-025-026-028-231700-
NORTHEAST ARKANSAS

CITY           SKY/WX    TMP DP  RH WIND       PRES   REMARKS
JONESBORO      CLOUDY    39  28  64 NW14G23   30.12R
NEWPORT          N/A     41  28  60 NW15      30.15R
WALNUT RIDGE   CLOUDY    39  26  59 NW20      30.13R
BLYTHEVILLE    CLOUDY    41  35  79 NW16G25   30.11R
$$

ARZ022-023-033-042-044-231700-
CENTRAL ARKANSAS

CITY           SKY/WX    TMP DP  RH WIND       PRES   REMARKS
LITTLE ROCK    FAIR      44  28  53 NW17G25   30.18R
N LITTLE ROCK    N/A     41  30  64 W9G17     30.12R
JACKSONVILLE   FAIR      44  29  56 W15       30.16R
SEARCY         FAIR      44  29  55 NW13G20   30.16
HOT SPRINGS    FAIR      45  27  49 NW9       30.20R
RUSSELLVILLE   SUNNY     41  28  60 NW15      30.19R
CLINTON        FAIR      43  28  56 NW15      30.16R
$$

ARZ036-231700-
EAST ARKANSAS

CITY           SKY/WX    TMP DP  RH WIND       PRES   REMARKS
WEST MEMPHIS   FAIR      42  32  67 N12G20    30.12R
$$

ARZ050-053-066-070-073-231700-
SOUTHWEST ARKANSAS

CITY           SKY/WX    TMP DP  RH WIND       PRES   REMARKS
ARKADELPHIA    FAIR      45  29  53 W12       30.23R
CAMDEN         FAIR      48  25  40 W8        30.21R
TEXARKANA      FAIR      44  25  47 NW10      30.24R
EL DORADO      FAIR      46  30  53 W8        30.22R
DE QUEEN       SUNNY     43  26  51 NW5       30.22R
$$

ARZ056-057-069-231700-
SOUTHEAST ARKANSAS

CITY           SKY/WX    TMP DP  RH WIND       PRES   REMARKS
PINE BLUFF     FAIR      46  29  51 W14       30.18R
STUTTGART      FAIR      44  32  62 W13       30.17R
MONTICELLO     FAIR      46  28  49 W10G21    30.18R

$$






USA.gov is the U.S. government's official web portal to all federal, state and local government web resources and services.